Date,TemperatureHighF,TemperatureAvgF,TemperatureLowF,DewpointHighF,DewpointAvgF,DewpointLowF,HumidityHigh,HumidityAvg,HumidityLow,PressureMaxIn,PressureMinIn,WindSpeedMaxMPH,WindSpeedAvgMPH,GustSpeedMaxMPH,PrecipitationSumIn
2013-1-4,25.2,23.4,22.6,0.0,0.0,0.0,0,0,100,30.06,30.02,13,8,13,0.00
2013-1-10,61.0,40.8,34.3,23.8,17.6,13.9,50,40,24,30.41,30.26,18,2,18,0.00
2013-1-11,45.9,37.5,33.3,36.7,24.5,15.9,70,60,45,30.27,29.94,24,4,24,0.33
2013-1-12,64.6,51.8,45.3,47.2,41.7,36.1,72,68,52,30.04,29.96,15,3,15,0.00
2013-1-13,51.8,51.8,51.8,40.8,40.8,40.8,66,66,66,29.97,29.97,0,0,3,0.00
2013-1-17,26.4,26.4,26.4,17.3,17.3,17.3,68,68,68,29.99,29.99,4,4,11,0.00
2013-1-18,47.8,26.3,11.1,17.3,6.8,-1.9,69,46,22,30.32,29.99,7,2,7,0.00
2013-1-19,62.8,42.1,25.3,18.1,10.5,2.2,39,28,17,30.16,29.77,18,8,18,0.00
2013-1-20,45.0,33.7,14.9,21.1,11.4,1.9,56,41,25,29.98,29.67,19,8,19,0.00
2013-1-21,22.3,15.2,4.5,10.0,3.9,-7.7,64,60,54,29.96,29.77,25,7,25,0.00
2013-1-22,18.5,4.8,0.3,-3.8,-8.6,-11.7,61,54,35,30.04,29.86,24,9,24,0.00
2013-1-26,18.9,18.3,17.8,9.1,8.5,8.0,65,65,65,30.25,30.19,0,0,0,0.00
2013-1-27,56.1,29.2,14.7,21.3,10.1,5.1,66,49,22,30.38,30.25,0,0,0,0.00
2013-1-28,45.7,42.9,25.3,37.3,34.3,13.4,72,71,60,30.22,29.90,28,9,28,0.00
2013-1-29,63.0,51.0,45.7,49.2,41.0,37.3,73,69,58,30.00,29.82,16,4,16,0.00
2013-1-30,64.2,52.9,47.3,46.7,41.8,37.9,72,66,53,29.82,29.23,30,5,30,0.00
2013-1-31,47.1,38.4,29.5,38.3,29.4,20.8,71,70,67,29.31,29.17,30,12,30,0.00
2013-2-9,36.0,17.7,14.4,8.2,3.9,2.1,59,54,31,30.26,30.20,8,0,8,0.00
2013-2-10,68.7,32.6,13.3,25.0,10.7,2.2,62,43,18,30.25,29.95,21,3,21,0.00
2013-2-11,70.3,42.6,31.6,39.3,26.6,13.2,70,56,24,29.96,29.61,28,6,34,0.00
2013-4-13,59.9,47.0,37.9,28.5,24.8,21.7,52,42,30,29.91,29.83,7,4,7,0.00
2013-4-14,75.2,48.4,29.1,33.2,23.9,15.7,62,41,22,30.09,29.92,11,2,11,0.00
2013-4-15,73.2,58.3,48.9,41.9,37.6,26.4,60,47,32,30.11,29.99,17,4,17,0.00
2013-4-16,83.5,64.6,51.1,51.7,43.9,38.6,62,49,33,30.10,30.05,17,5,17,0.00
2013-4-26,65.3,55.1,41.4,31.0,22.5,15.7,38,29,23,30.39,29.59,15,3,15,0.00
2013-4-27,76.8,55.3,38.8,35.2,25.0,14.4,42,32,20,30.37,30.20,17,1,17,0.00
2013-4-28,56.7,48.8,44.8,38.4,33.8,28.4,68,57,42,30.20,30.02,32,3,32,0.00
2013-4-29,62.6,51.8,44.8,45.6,39.9,34.7,70,64,51,30.06,29.99,16,2,16,0.00
2013-4-30,62.8,54.5,49.1,44.8,42.1,39.6,70,63,50,30.22,30.05,20,3,20,0.00
2013-5-1,79.0,59.0,45.5,41.2,34.0,24.0,68,43,20,30.35,30.21,14,3,14,0.00
2013-5-2,77.5,58.1,42.6,36.2,30.9,25.6,62,38,18,30.38,30.25,17,3,17,0.00
2013-5-3,74.3,57.9,47.1,39.4,33.1,26.9,54,41,27,30.30,30.21,17,3,17,0.00
2013-5-4,72.5,54.7,41.4,39.1,33.4,28.2,60,46,28,30.24,30.12,19,3,19,0.00
2013-5-5,75.0,55.4,42.3,32.5,28.3,22.1,62,39,16,30.17,30.07,20,3,20,0.00
2013-5-6,69.1,54.0,39.9,44.5,37.0,27.5,66,53,40,30.12,30.06,15,3,15,0.00
2013-5-7,67.1,57.4,52.3,46.2,44.0,41.5,69,61,44,30.07,29.99,14,4,14,0.00
2013-5-8,75.6,58.0,49.8,49.5,43.8,38.3,72,60,37,30.01,29.91,14,1,14,0.00
2013-5-9,71.4,56.6,49.8,49.9,43.5,40.1,72,62,41,30.03,29.90,17,3,17,0.00
2013-5-10,75.0,60.3,52.9,53.3,46.4,40.5,70,61,46,30.03,29.85,22,2,22,0.00
2013-5-11,57.2,53.2,47.5,48.2,44.1,37.6,72,71,67,29.85,29.79,17,5,17,0.00
2013-5-12,49.6,42.5,34.5,38.1,25.9,19.4,71,53,34,29.99,29.78,31,8,31,0.00
2013-5-13,48.6,37.8,30.7,23.9,20.3,15.6,68,50,34,30.14,29.98,20,4,22,0.00
2013-5-14,55.6,40.9,28.2,30.3,22.8,15.1,61,49,33,30.16,29.96,14,2,14,0.00
2013-5-15,82.6,63.1,46.2,54.1,42.8,28.3,66,48,34,29.96,29.75,27,5,27,0.00
2013-5-16,80.1,66.0,55.9,51.4,44.4,33.5,70,48,24,30.00,29.80,21,4,21,0.00
2013-5-17,81.3,65.2,54.3,48.9,44.7,35.8,70,50,29,30.14,30.00,9,1,9,0.00
2013-5-18,79.5,62.8,52.3,53.1,43.5,32.7,67,50,39,30.18,30.11,8,2,8,0.00
2013-5-19,73.8,60.4,54.3,54.4,48.5,44.9,70,65,50,30.16,30.07,10,2,10,0.00
2013-5-20,60.4,59.8,58.8,50.9,50.3,49.3,71,70,70,30.09,30.04,8,1,8,0.00
2013-5-22,86.5,71.5,62.8,56.1,52.4,48.8,64,52,34,29.95,29.85,7,2,7,0.00
2013-5-23,75.4,62.6,55.9,53.9,49.5,46.2,70,63,41,29.88,29.80,7,2,7,0.00
2013-5-24,55.4,41.3,36.3,46.0,30.4,23.7,71,65,55,30.18,29.83,17,4,17,0.00
2013-5-25,60.1,44.4,34.2,30.8,26.8,24.2,69,52,30,30.21,30.14,7,3,7,0.00
2013-5-26,66.7,48.5,33.6,32.5,27.1,22.2,64,46,27,30.22,30.16,4,0,4,0.00
2013-5-27,64.0,52.2,40.6,38.4,30.7,23.9,59,45,29,30.26,30.14,0,0,0,0.00
2013-5-28,73.9,64.7,48.9,55.9,50.6,37.6,71,60,53,30.14,30.04,8,0,8,0.00
2013-5-29,77.7,68.0,63.5,54.9,50.9,48.8,59,54,45,30.12,30.05,10,3,10,0.00
2013-5-30,85.6,73.9,65.3,57.3,53.3,49.4,58,49,36,30.23,30.14,3,0,3,0.00
2013-5-31,84.7,77.2,64.0,56.5,54.5,51.1,63,46,37,30.17,30.13,8,2,8,0.00
2013-6-1,87.6,74.4,62.4,57.3,54.5,50.6,67,51,35,30.08,29.92,8,2,8,0.00
2013-6-2,76.8,70.0,65.3,55.7,52.9,50.5,67,55,41,29.91,29.86,10,2,10,0.00
2013-6-3,67.3,61.0,48.9,51.9,46.1,33.2,68,58,45,30.03,29.90,1,0,1,0.00
2013-6-4,74.7,55.4,39.7,41.7,35.6,28.9,66,49,30,30.15,30.05,4,0,4,0.00
2013-6-5,82.0,62.9,50.2,50.6,43.7,31.6,57,50,34,30.17,30.01,9,1,9,0.00
2013-6-6,62.1,59.1,56.5,49.5,47.3,41.4,71,65,58,30.02,29.85,12,2,12,0.00
2013-6-8,70.3,61.9,54.3,49.1,47.0,44.0,71,58,46,30.13,30.02,8,1,8,0.00
2013-6-9,82.9,66.2,52.3,56.0,51.6,43.1,70,60,40,30.20,30.09,7,1,7,0.00
2013-6-10,76.1,66.0,60.6,59.9,54.6,50.4,72,67,55,30.10,29.83,11,2,11,0.00
2013-6-11,73.2,63.6,60.4,56.9,52.5,50.0,73,67,52,29.93,29.81,19,4,19,0.00
2013-6-12,80.4,68.0,60.1,59.0,54.3,49.6,72,62,44,29.95,29.83,10,1,10,0.00
2013-6-13,68.9,63.0,55.0,58.3,52.1,43.8,72,67,62,29.84,29.58,28,6,28,0.00
2013-6-14,72.0,59.8,50.5,50.3,45.4,41.0,70,60,43,30.05,29.77,15,3,15,0.00
2013-6-15,78.1,62.2,51.6,47.9,41.5,35.3,72,50,26,30.13,30.02,16,2,16,0.00
2013-6-16,71.2,63.5,57.4,57.8,50.3,37.5,70,62,42,30.07,29.91,27,5,27,0.00
2013-6-17,83.8,68.2,63.3,56.0,52.9,47.7,71,60,31,30.01,29.95,14,3,14,0.00
2013-6-18,77.9,67.4,59.5,58.8,52.8,49.7,70,60,46,29.98,29.88,18,0,18,0.00
2013-6-19,81.7,62.7,48.7,49.7,43.0,38.0,70,51,27,30.17,29.97,12,1,12,0.00
2013-6-20,86.2,67.6,55.0,52.8,47.3,39.9,66,50,31,30.25,30.17,11,1,11,0.00
2013-6-21,69.6,61.1,58.3,55.5,50.9,49.0,71,69,58,30.28,30.23,1,0,1,0.00
2013-10-7,66.2,54.8,44.1,52.1,41.9,32.2,71,62,47,30.09,29.76,18,3,18,0.00
2013-10-8,71.8,51.6,39.7,43.3,35.7,31.2,72,57,33,30.29,30.09,5,0,5,0.00
2013-10-9,64.9,50.6,42.1,37.9,32.7,29.1,66,52,35,30.32,30.25,4,0,4,0.00
2013-10-10,61.7,49.9,42.8,38.2,34.5,30.8,70,56,38,30.24,30.11,6,0,6,0.00
2013-10-11,57.9,51.0,47.8,47.8,41.8,38.6,72,70,66,30.09,30.05,4,0,4,0.00
2013-10-12,75.6,60.9,52.9,52.6,46.6,41.0,71,60,42,30.20,30.06,4,0,4,0.00
2013-10-13,63.3,55.0,52.9,52.5,47.5,40.7,94,77,57,30.28,30.18,7,1,7,0.00
2013-10-14,64.0,55.6,51.4,59.1,53.1,49.6,94,92,83,30.29,30.22,8,0,8,0.00
2013-10-15,72.7,57.6,50.4,62.4,53.5,49.0,96,87,69,30.24,30.03,9,0,9,0.00
2013-10-16,63.5,56.8,52.5,59.6,52.7,48.1,93,86,78,30.04,29.90,15,0,15,0.00
2013-10-17,60.3,53.2,45.5,56.7,51.1,44.0,95,92,83,29.93,29.65,21,2,21,0.00
2013-10-18,61.0,47.5,41.7,48.0,42.3,37.4,95,83,62,29.99,29.85,21,5,21,0.00
2013-10-19,52.2,45.1,38.5,46.5,41.5,35.9,92,87,79,29.99,29.76,16,4,22,0.00
2013-10-20,57.0,46.0,34.9,45.1,39.0,33.0,94,77,62,30.04,29.89,11,4,11,0.00
2013-10-21,69.6,51.0,38.8,50.3,40.1,33.2,82,67,50,30.06,29.88,8,1,10,0.00
2013-10-22,54.7,45.2,36.1,42.6,37.1,29.0,92,73,58,29.91,29.81,16,2,16,0.00
2013-10-23,37.2,35.3,32.4,34.8,31.6,29.1,94,87,74,29.87,29.71,10,1,10,0.00
2013-10-24,44.4,34.0,28.8,34.2,29.9,26.3,94,85,66,30.07,29.86,17,4,17,0.00
2013-10-25,44.1,33.2,28.2,37.8,29.9,26.1,94,88,71,30.24,30.07,13,4,13,0.00
2013-10-26,51.6,37.2,27.1,36.1,29.3,24.6,90,74,54,30.20,29.88,21,5,21,0.00
2013-10-27,50.4,38.0,32.5,38.3,32.0,28.0,92,79,62,30.09,29.91,19,3,19,0.00
2013-10-28,64.2,44.6,32.5,46.5,35.4,28.2,84,71,51,30.25,30.07,8,0,8,0.00
2013-10-29,63.5,46.2,34.3,47.4,37.9,31.1,90,74,54,30.33,30.24,7,0,7,0.00
2013-10-30,71.6,53.2,40.8,57.0,45.7,35.4,89,76,59,30.24,30.11,7,0,7,0.00
2013-10-31,61.7,56.4,52.9,57.2,53.7,49.7,94,91,84,30.12,29.60,12,1,12,0.00
2013-11-1,64.0,54.9,46.0,56.1,48.7,40.4,94,80,60,29.73,29.43,33,7,33,0.00
2013-11-2,53.2,45.2,39.7,44.2,40.6,38.0,94,84,72,29.88,29.67,20,5,20,0.00
2013-11-3,50.9,37.0,26.8,38.8,31.6,21.9,94,82,61,30.39,29.88,15,3,15,0.00
2013-11-4,43.2,30.9,22.5,29.8,22.6,17.9,83,71,58,30.51,30.39,17,3,17,0.00
2013-11-5,53.4,39.3,30.9,38.0,29.1,23.0,86,67,52,30.48,30.33,16,2,16,0.00
2013-11-6,73.0,52.8,37.2,57.3,45.6,33.5,93,78,57,30.33,29.93,13,2,13,0.00
2013-11-7,58.1,42.6,31.1,51.7,39.0,25.9,94,87,74,30.05,29.85,24,5,24,0.00
2013-11-8,37.6,32.7,26.2,30.8,27.4,22.2,89,81,71,30.23,30.01,24,4,24,0.00
2013-11-9,52.7,39.5,25.0,38.5,29.2,21.7,88,68,50,30.23,29.92,31,4,31,0.00
2013-11-10,46.9,39.6,32.7,36.3,32.2,27.9,82,75,57,30.19,29.90,25,8,25,0.00
2013-11-11,49.3,37.2,28.8,36.9,29.9,25.7,90,76,59,30.20,29.98,18,6,22,0.00
2013-11-12,34.9,26.2,19.2,31.9,21.9,15.9,92,84,68,30.34,30.00,20,2,20,0.00
2013-11-13,36.7,26.0,20.5,26.8,20.6,17.3,90,80,65,30.40,30.26,18,6,18,0.00
2013-11-14,48.6,34.0,24.3,31.0,22.9,18.6,80,65,50,30.26,30.15,20,8,20,0.00
2013-11-15,56.1,43.5,37.2,37.4,28.9,23.5,75,56,46,30.19,30.10,18,5,18,0.00
2013-11-16,63.5,47.6,36.7,51.2,41.7,33.9,93,81,62,30.23,30.08,12,1,12,0.00
2013-11-17,54.1,50.4,45.3,52.7,48.6,43.3,95,94,90,30.09,29.59,32,2,32,0.00
2013-11-18,53.2,44.5,33.6,47.1,36.5,27.1,93,74,58,29.95,29.64,27,9,27,0.00
2013-11-19,33.6,29.7,21.7,27.8,24.3,18.2,86,80,75,30.33,29.95,24,5,24,0.00
2013-11-20,47.3,30.9,21.4,29.8,21.3,17.1,87,69,50,30.43,30.32,19,4,19,0.00
2013-11-21,48.4,35.6,26.8,38.8,30.0,18.3,90,80,65,30.41,30.23,15,2,15,0.00
2013-11-22,48.9,44.7,32.7,47.5,42.8,30.6,96,93,85,30.23,30.01,24,6,24,0.00
2013-11-23,36.1,26.1,13.6,30.6,21.8,8.8,92,84,66,30.17,30.00,29,8,29,0.00
2013-11-24,21.0,14.3,9.7,16.7,10.0,6.0,88,83,76,30.37,30.16,19,7,23,0.00
2013-11-25,35.8,21.6,8.6,23.0,13.5,5.1,86,72,55,30.38,30.15,23,4,23,0.00
2013-11-26,32.7,30.1,27.0,30.2,27.8,22.9,94,91,78,30.17,29.66,15,1,15,0.00
2013-11-27,31.3,25.2,17.4,29.8,23.3,15.0,95,92,89,29.97,29.60,0,0,0,0.00
2013-11-28,26.1,18.7,12.7,20.8,15.6,10.4,91,87,78,30.33,29.97,0,0,0,0.00
2013-11-29,32.2,21.7,15.6,28.3,18.9,13.4,92,89,82,30.56,30.32,0,0,0,0.00
2013-11-30,29.8,22.3,16.3,26.0,19.6,14.1,92,90,84,30.55,30.20,0,0,0,0.00
2013-12-1,47.5,33.4,23.9,40.2,29.2,21.5,90,84,72,30.20,29.94,10,1,10,0.00
2013-12-2,49.5,38.4,31.6,40.3,33.3,27.7,87,82,70,29.94,29.80,9,1,9,0.00
2013-12-3,55.0,40.0,34.7,46.0,36.1,31.9,93,86,70,29.92,29.82,9,0,9,0.00
2013-12-4,57.9,44.5,36.5,49.3,40.0,33.7,92,85,73,30.01,29.91,14,1,14,0.00
2013-12-5,59.5,51.2,39.7,55.6,48.9,38.2,95,92,82,29.97,29.88,10,2,17,0.00
2013-12-6,39.7,31.5,26.6,38.2,30.0,25.0,95,94,93,30.17,29.95,14,1,14,0.00
2013-12-7,30.7,22.1,11.8,26.2,19.8,9.5,94,91,82,30.46,30.14,0,0,0,0.00
2013-12-8,23.5,17.2,10.0,21.6,14.8,7.5,93,90,87,30.46,30.08,18,2,25,0.00
2013-12-9,34.7,29.7,23.5,33.4,27.8,21.7,95,93,89,30.08,29.95,26,5,26,0.00
2013-12-10,26.1,21.7,16.9,23.4,17.7,11.4,92,84,73,30.11,29.92,33,7,33,0.00
2013-12-11,26.2,18.6,13.1,17.4,13.2,9.6,89,79,67,30.24,30.11,27,8,27,0.00
2013-12-12,19.2,14.3,9.1,14.1,8.2,4.4,88,77,64,30.32,30.12,24,7,24,0.00
2013-12-13,32.7,20.6,12.9,22.3,13.5,6.0,81,74,64,30.20,30.10,21,5,21,0.00
2013-12-14,30.4,27.5,24.1,28.7,23.5,17.9,94,85,73,30.20,29.67,24,3,24,0.00
2013-12-15,33.4,25.5,15.4,31.9,23.4,10.5,95,92,81,29.90,29.58,30,8,30,0.00
2013-12-16,27.0,16.3,10.8,19.7,11.9,7.4,90,83,68,30.07,29.90,29,3,29,0.00
2013-12-17,30.4,26.4,21.6,28.5,24.4,19.0,94,92,90,29.99,29.87,10,0,10,0.00
2013-12-18,24.6,22.1,18.1,21.5,19.4,15.5,92,89,85,30.11,29.93,22,7,22,0.00
2013-12-19,48.7,37.6,23.9,37.1,29.1,18.8,85,71,64,30.05,29.99,24,7,24,0.00
2013-12-20,49.8,45.5,41.4,46.9,38.2,30.8,94,76,62,30.02,29.89,20,4,20,0.00
2013-12-21,56.5,53.0,49.6,54.4,51.0,46.6,95,93,89,29.91,29.76,24,3,24,0.00
2013-12-22,60.6,55.9,51.6,56.5,52.7,47.9,94,89,82,29.95,29.66,30,7,30,0.00
2013-12-23,51.6,36.4,25.5,47.9,33.9,21.3,95,91,83,30.18,29.92,20,2,20,0.00
2013-12-24,25.5,18.8,6.4,21.5,14.6,3.4,90,83,74,30.37,30.12,28,4,28,0.00
2013-12-25,28.0,15.9,6.3,19.9,11.0,3.1,89,81,70,30.39,30.16,10,1,10,0.00
2013-12-26,31.3,24.3,18.3,24.8,19.9,14.3,91,83,72,30.25,30.07,24,5,24,0.00
2013-12-27,39.6,28.1,18.0,29.2,21.5,13.8,85,76,66,30.28,30.20,18,5,18,0.00
2013-12-28,50.7,39.1,31.5,36.4,28.9,23.3,73,66,58,30.20,30.04,21,6,21,0.00
2013-12-29,42.1,37.5,34.2,36.4,32.7,27.5,95,84,58,30.04,29.62,21,2,21,0.00
2013-12-30,35.2,22.9,15.6,33.9,20.2,12.4,95,89,80,30.09,29.76,21,4,21,0.00
2013-12-31,20.8,17.8,14.7,18.5,14.9,10.7,92,89,84,30.19,29.98,29,6,29,0.00
2014-1-1,40.6,24.9,16.3,30.9,20.7,13.7,92,85,67,30.24,30.01,11,2,11,0.00
2014-1-2,25.0,21.3,9.1,21.9,18.6,6.2,91,89,87,30.01,29.63,15,3,15,0.00